Ely, NV

8:22 PM PDT on July 20, 2017 (GMT -0700)
Ely

Weather History for KELY - February, 2013

Change the Weather History Date:

Thursday, February 28, 2013

  Actual Average Record
Temperature  
Mean Temperature 31 °F 32 °F  
Max Temperature 47 °F 46 °F 67 °F (1986)
Min Temperature 14 °F 19 °F -9 °F (1997)
Degree Days  
Heating Degree Days 34 32  
Month to date heating degree days 1104 1007  
Since 1 July heating degree days 5219 5337  
Cooling Degree Days 0 0  
Month to date cooling degree days 0 0  
Year to date cooling degree days 0 0  
Moisture  
Dew Point 16 °F    
Average Humidity 55    
Maximum Humidity 81    
Minimum Humidity 28    
Precipitation  
Precipitation 0.00 in 0.03 in 0.34 in (2014)
Month to date precipitation 0.65 0.75  
Year to date precipitation 1.45 1.45  
Snow  
Snow 0.00 in 0.30 in 3.00 in (1911)
Month to date snowfall 10.0 7.9  
Since 1 July snowfall 55.4 34.9  
Snow Depth T in    
Sea Level Pressure  
Sea Level Pressure 30.47 in    
Wind  
Wind Speed 8 mph (SSE)    
Max Wind Speed 17 mph    
Max Gust Speed 20 mph    
Visibility 10 miles    
Events      
T = Trace of Precipitation, MM = Missing Value Source: NWS Daily Summary

Daily Weather History Graph

Daily Weather History Graph

Search for Another Location

Airport or City:

Trip Planner

Search our weather history database for the weather conditions in past years. The results will help you decide how hot, cold, wet, or windy it might be!

Date:

Astronomy

Feb. 28, 2013 Rise Set
Actual Time 6:13 AM PST 5:31 PM PST
Civil Twilight 5:46 AM PST 5:58 PM PST
Nautical Twilight 5:15 AM PST 6:29 PM PST
Astronomical Twilight 4:44 AM PST 7:00 PM PST
Moon 9:01 PM PST (2/28) 7:26 AM PST (2/28)
Length of Visible Light 12h 11m
Length of Day
11h 18m
Waning Gibbous, 90% of the Moon is Illuminated
Feb 28
Waning Gibbous
Mar 4
Last Quarter
Mar 11
New
Mar 19
First Quarter
Mar 27
Full

Hourly Weather History & Observations

Time (PST) Temp. Windchill Dew Point Humidity Pressure Visibility Wind Dir Wind Speed Gust Speed Precip Events Conditions
12:53 AM 19.9 °F 7.9 °F 10.9 °F 68% 30.43 in 10.0 mi South 11.5 mph - N/A   Clear
1:53 AM 16.0 °F 3.6 °F 10.0 °F 77% 30.45 in 10.0 mi South 10.4 mph - N/A   Clear
2:53 AM 16.0 °F 2.3 °F 10.9 °F 81% 30.43 in 10.0 mi South 12.7 mph - N/A   Clear
3:53 AM 15.1 °F 1.8 °F 9.0 °F 77% 30.43 in 10.0 mi South 11.5 mph - N/A   Clear
4:53 AM 17.1 °F 3.6 °F 8.1 °F 68% 30.44 in 10.0 mi South 12.7 mph - N/A   Clear
5:53 AM 15.1 °F 2.5 °F 8.1 °F 74% 30.49 in 10.0 mi South 10.4 mph - N/A   Clear
6:53 AM 15.1 °F 1.8 °F 8.1 °F 74% 30.50 in 10.0 mi South 11.5 mph - N/A   Clear
7:53 AM 23.0 °F 11.7 °F 12.0 °F 63% 30.50 in 10.0 mi South 11.5 mph - N/A   Clear
8:53 AM 30.9 °F 24.3 °F 15.1 °F 52% 30.48 in 10.0 mi South 6.9 mph - N/A   Mostly Cloudy
9:53 AM 37.0 °F 34.5 °F 15.1 °F 41% 30.48 in 10.0 mi ESE 3.5 mph - N/A   Overcast
10:53 AM 45.0 °F 42.6 °F 15.1 °F 30% 30.43 in 10.0 mi NNE 4.6 mph - N/A   Clear
11:53 AM 45.0 °F 39.3 °F 16.0 °F 31% 30.43 in 10.0 mi WNW 11.5 mph - N/A   Clear
12:53 PM 46.0 °F 41.0 °F 19.0 °F 34% 30.41 in 10.0 mi WNW 10.4 mph - N/A   Clear
1:53 PM 46.4 °F 42.4 °F 15.8 °F 29% 30.40 in 10.0 mi NW 8.1 mph - N/A   Clear
2:53 PM 46.0 °F 43.1 °F 17.1 °F 31% 30.44 in 10.0 mi NNW 5.8 mph - N/A   Clear
3:53 PM 46.0 °F 43.1 °F 16.0 °F 30% 30.44 in 10.0 mi North 5.8 mph - N/A   Clear
4:53 PM 44.6 °F 40.7 °F 19.4 °F 37% 30.42 in 10.0 mi NNE 6.9 mph - N/A   Clear
5:53 PM 36.0 °F - 19.9 °F 52% 30.51 in 10.0 mi Calm Calm - N/A   Clear
6:53 PM 34.0 °F 31.0 °F 21.0 °F 59% 30.54 in 10.0 mi NNW 3.5 mph - N/A   Clear
7:53 PM 28.9 °F 23.9 °F 21.9 °F 75% 30.55 in 10.0 mi SSE 4.6 mph - N/A   Clear
8:53 PM 27.0 °F 19.5 °F 21.0 °F 78% 30.54 in 10.0 mi SE 6.9 mph - N/A   Clear
9:53 PM 27.0 °F 19.5 °F 21.0 °F 78% 30.52 in 10.0 mi SSE 6.9 mph - N/A   Clear
10:53 PM 26.1 °F 19.4 °F 21.0 °F 81% 30.49 in 10.0 mi South 5.8 mph - N/A   Clear
11:53 PM 27.0 °F 17.3 °F 21.9 °F 81% 30.48 in 10.0 mi South 10.4 mph - N/A   Clear